Simultaneous Nadir Overpasses (SNOs) Predictions

Prediction of SNOs between TERRA and METOP-C Satellite Orbit:

Table of predicted SNOs for the next 14.0 days since TLE Epoch: 4/1/2023
Index Date (TERRA) Time (TERRA) Lat,Lon (TERRA) SZA (TERRA ) Date (METOP-C) Time (METOP-C) Lat,Lon (METOP-C) SZA (METOP-C ) Distance(km) Time Diff (sec)
1 04/03/2023 10:10:06 -80.85,-118.85 103.00 04/03/2023 10:09:21 -80.85,-118.98 103.02 2.17 45
2 04/03/2023 10:59:26 80.90, 49.41 77.09 04/03/2023 10:59:59 80.90, 49.23 77.08 3.18 33
3 04/06/2023 02:21:12 -80.87, -1.41 103.96 04/06/2023 02:21:00 -80.88, -1.28 103.94 2.42 12
4 04/06/2023 03:10:32 80.92, 166.86 76.13 04/06/2023 03:11:38 80.93, 166.97 76.17 1.98 66
5 04/08/2023 17:42:56 80.84, -52.29 75.00 04/08/2023 17:42:02 80.83, -52.44 74.97 2.67 54
6 04/08/2023 18:32:17 -80.89, 116.05 104.90 04/08/2023 18:32:40 -80.89, 115.94 104.91 1.81 23
7 04/11/2023 09:54:00 80.86, 65.17 74.07 04/11/2023 09:53:41 80.86, 65.06 74.06 1.92 19
8 04/11/2023 10:43:20 -80.91,-126.50 105.84 04/11/2023 10:44:18 -80.91,-126.58 105.83 1.45 58
9 04/14/2023 01:15:41 -80.86, 14.71 106.88 04/14/2023 01:14:39 -80.86, 14.84 106.89 2.30 62



Historial Predications of SNOs between TERRA and METOP-C
